ATLAS CENTAUR 2 1 00694U 63047A 10072.85922204 .00000637 00000-0 72291-4 0 2142 2 00694 30.3574 277.3644 0616628 186.7835 172.4078 13.95167026311131 THOR AGENA D R/B 1 00733U 64002A 10073.15838074 .00000006 00000-0 20656-4 0 183 2 00733 99.0909 112.9779 0034042 332.1618 27.7747 14.31287183402822 SL-3 R/B 1 00877U 64053B 10073.30784803 -.00000077 00000-0 88587-5 0 3433 2 00877 65.0785 113.3033 0052291 66.4812 294.1761 14.58109577414720 SL-8 R/B 1 02802U 67045B 10072.96477233 -.00000014 00000-0 41533-5 0 2524 2 02802 74.0090 59.1162 0066956 30.4903 330.0132 14.42488807246414 SL-8 R/B 1 03230U 68040B 10073.70606580 .00000204 00000-0 28531-4 0 9066 2 03230 74.0359 124.2683 0033100 58.7302 301.7113 14.84304721241384 OAO 2 1 03597U 68110A 10073.16463862 .00000023 00000-0 11729-4 0 2887 2 03597 34.9952 28.5505 0006098 281.0266 78.9752 14.44885337174020 ISIS 1 1 03669U 69009A 10072.92991689 .00000047 00000-0 30727-4 0 233 2 03669 88.4115 81.8320 1714318 339.4227 14.5102 11.28868183689642 METEOR 1-1 1 03835U 69029A 10073.14812132 .00008923 00000-0 15961-3 0 3281 2 03835 81.1608 76.3804 0007623 20.2569 339.8978 15.49801796239163 SERT 2 1 04327U 70009A 10073.63851458 .00000032 00000-0 10000-3 0 1365 2 04327 99.1757 294.7194 0004941 353.2704 6.8362 13.58234359987512 SL-3 R/B 1 04814U 70113B 10073.26536809 .00000862 00000-0 45356-4 0 2108 2 04814 81.1498 269.3300 0040957 27.6846 332.6550 15.13828498131098 SL-3 R/B 1 05118U 71028B 10073.40994960 .00000624 00000-0 44037-4 0 3825 2 05118 81.2367 291.1174 0049805 48.9499 311.6025 15.02448464104694 ASTEX 1 1 05560U 71089A 10073.08981785 .00000119 00000-0 33564-4 0 535 2 05560 92.7123 70.3419 0014817 291.5957 68.3674 14.46240001 17616 SL-8 R/B 1 05730U 71119B 10073.72832019 .00001768 00000-0 13398-3 0 4148 2 05730 73.8989 52.5508 0800335 87.5614 281.6828 13.77400224837537 COSMOS 482 DESCENT CRAFT 1 06073U 72023E 10073.51089803 .00014034 26628-5 10522-3 0 7492 2 06073 52.1247 82.9036 2178323 249.7282 85.7490 11.23430701 45630 OAO 3 (COPERNICUS) 1 06153U 72065A 10073.17534852 .00000060 00000-0 17722-4 0 4243 2 06153 35.0092 332.7165 0006555 64.7960 295.3429 14.56593897993839 ATLAS CENTAUR R/B 1 06155U 72065B 10072.81232715 .00000135 00000-0 26736-4 0 1041 2 06155 35.0072 349.7702 0041148 307.6919 52.0059 14.68029473 1557 OPS 8180 (RADCAT) 1 06212U 72076A 10073.38318766 .00005902 00000-0 20580-3 0 9642 2 06212 98.5688 128.0228 0004199 136.5432 223.6164 15.30115615164178 SL-8 R/B 1 07004U 73107B 10073.09571157 .00003097 00000-0 12461-3 0 2736 2 07004 73.9635 83.6483 0427400 243.4436 112.2336 14.69152160839925 SL-8 R/B 1 07338U 74044B 10072.98492230 .00019152 00000-0 36186-3 0 1163 2 07338 82.8838 183.0907 0207290 196.3337 163.1162 15.28113545840748 DELTA 1 R/B 1 08063U 75072B 10073.15895290 .00012959 00000-0 35416-3 0 5059 2 08063 89.1459 313.6671 0932913 160.2532 203.7467 13.72251126505658 SL-8 R/B 1 08459U 75112B 10073.09242244 .00000018 00000-0 15031-4 0 8981 2 08459 74.0606 295.4437 0015605 50.3948 309.8579 14.35899731793438 SL-3 R/B 1 10114U 77057B 10073.34101866 -.00000099 00000-0 -23238-5 0 706 2 10114 97.4743 328.9360 0017587 142.1351 218.1078 15.08880770782704 SL-3 R/B 1 10861U 78045B 10073.27796378 .00003204 00000-0 80994-4 0 2682 2 10861 81.2012 115.1441 0021596 126.2937 234.0350 15.39203520746859 SEASAT 1 1 10967U 78064A 10072.94440268 -.00000050 00000-0 26243-4 0 645 2 10967 108.0095 166.0724 0003491 247.5678 112.5096 14.42185893664061 SL-14 R/B 1 11267U 79011B 10072.78824420 .00000117 00000-0 10194-4 0 562 2 11267 82.5238 209.8048 0019328 40.8232 319.4430 14.87038820681066 SL-8 R/B 1 11574U 79089B 10073.44677722 .00000135 00000-0 51712-4 0 5222 2 11574 74.0664 69.5163 0016818 287.0470 72.8844 14.39626846595437 SL-14 R/B 1 11672U 80005B 10073.51391365 .00000138 00000-0 12827-4 0 6672 2 11672 82.5114 58.4149 0019206 105.6239 254.7118 14.86089798629358 SL-3 R/B 1 11849U 80051B 10072.89642864 .00001858 00000-0 75251-4 0 856 2 11849 97.7335 218.0435 0011604 34.8947 325.3056 15.25990004628790 SL-3 R/B 1 11933U 80069B 10073.63443577 .00003377 00000-0 98840-4 0 9465 2 11933 81.2155 72.6497 0022848 0.7521 359.3778 15.34669776622630 COSMOS 1220 1 12054U 80089A 10073.02604758 .00003109 00000-0 13353-3 0 2219 2 12054 64.9757 146.4336 0041477 27.6707 332.6648 15.23989075509332 SL-8 R/B 1 12139U 81003B 10072.79688087 .00003670 00000-0 22027-3 0 39 2 12139 82.9578 203.4941 0592181 134.9636 230.1187 14.24944374465579 SL-8 R/B 1 12389U 81033B 10073.74748940 .00009581 00000-0 30611-3 0 6064 2 12389 82.9123 83.9614 0403166 17.4432 344.0220 14.79060874476965 SL-3 R/B 1 12465U 81046B 10072.75280760 .00001182 00000-0 81323-4 0 648 2 12465 81.2305 171.3971 0038757 124.6902 235.8012 15.04535389567486 METEOR PRIRODA 1 12585U 81065A 10073.20893611 -.00000030 00000-0 19662-5 0 6059 2 12585 97.3715 113.8057 0018048 230.6708 129.2918 15.07405912561230 SL-3 R/B 1 12904U 81103B 10072.76568604 .00000655 00000-0 52167-4 0 1545 2 12904 81.1781 48.0436 0033752 105.7923 254.7041 14.98604543 94736 SL-3 R/B 1 13068U 82013B 10073.77217909 .00000027 00000-0 32788-6 0 1585 2 13068 81.2093 352.9067 0025737 27.4352 332.8226 15.00373228525102 SL-3 R/B 1 13154U 82039B 10073.29414924 .00000295 00000-0 26065-4 0 9104 2 13154 81.1875 330.7766 0043215 246.4038 113.2636 14.92820176507408 COSMOS 1400 1 13402U 82079A 10073.21031054 .00002671 00000-0 93897-4 0 170 2 13402 81.1339 162.5042 0006393 280.0324 80.0190 15.28998791510527 SL-3 R/B 1 13403U 82079B 10073.44129289 .00000403 00000-0 30773-4 0 2777 2 13403 81.1712 48.0469 0038967 328.0456 31.8405 14.99232742498482 SL-3 R/B 1 13819U 83010B 10072.75062033 .00000279 00000-0 17590-4 0 6823 2 13819 81.1085 352.6414 0039072 88.4228 272.1449 15.05183810473527 COSMOS 1484 1 14207U 83075A 10073.57024822 .00006837 00000-0 13863-3 0 5497 2 14207 97.5626 207.4868 0015240 326.4991 33.5301 15.46614752903134 SL-3 R/B 1 14208U 83075B 10073.33738036 .00000077 00000-0 10375-4 0 8580 2 14208 97.6427 129.3823 0046324 189.3122 170.7251 15.02315480448362 COSMOS 1500 1 14372U 83099A 10073.43564193 .00001081 00000-0 75465-4 0 3649 2 14372 82.5313 52.1490 0013767 174.9975 185.1380 15.04294028437564 SL-8 R/B 1 14484U 83111B 10073.43221993 .00007455 00000-0 23680-3 0 1512 2 14484 82.8487 312.4645 0426905 147.6609 215.1601 14.74504119340193 COSMOS 1536 1 14699U 84013A 10073.78235092 .00000556 00000-0 44482-4 0 7295 2 14699 82.5290 1.7033 0016258 53.3040 306.9632 14.98169351415251 COSMOS 1544 1 14819U 84027A 10073.63616937 .00001123 00000-0 70896-4 0 7388 2 14819 82.5306 128.1103 0014414 288.5364 71.4295 15.08043464414131 SL-14 R/B 1 14820U 84027B 10073.75877671 .00000095 00000-0 88399-5 0 3434 2 14820 82.5415 299.0949 0019769 153.1554 207.0684 14.82120096403052 ERBS 1 15354U 84108B 10072.68208371 .00001206 00000-0 77116-4 0 3308 2 15354 56.9854 122.5184 0016796 184.3740 175.7191 15.16051009392920 SL-8 R/B 1 15483U 85006B 10072.73642419 .00000029 00000-0 19049-4 0 85 2 15483 74.0450 179.4536 0018411 94.6440 265.6816 14.35249884315898 SL-12 R/B(2) 1 15772U 85042D 10072.72498368 -.00000129 00000-0 -37582-4 0 1926 2 15772 71.1072 170.0759 0037043 207.6553 152.2625 14.20718489284669 SL-14 R/B 1 15945U 85069B 10073.13071965 .00000083 00000-0 73155-5 0 3198 2 15945 82.5238 93.7032 0021544 28.3653 331.8729 14.82457160327936 SL-3 R/B 1 16111U 85090B 10073.21020244 .00001091 00000-0 53244-4 0 1926 2 16111 97.5548 138.9590 0036239 101.5363 258.9945 15.19938046338111 SL-16 R/B 1 16182U 85097B 10073.63719998 -.00000191 00000-0 -72877-4 0 955 2 16182 71.0015 185.5462 0007513 167.6278 192.5040 14.15960949260858 SL-14 R/B 1 16496U 86006B 10072.81177838 .00000071 00000-0 58741-5 0 2327 2 16496 82.5267 331.6123 0019850 167.7556 192.4153 14.82557684304177 SL-14 R/B 1 16792U 86046B 10073.31096472 .00000088 00000-0 80994-5 0 1311 2 16792 82.4844 174.6801 0025964 17.7797 342.4319 14.81686728282018 SL-14 R/B 1 16882U 86055B 10072.82709652 .00000107 00000-0 10572-4 0 1278 2 16882 82.5213 193.4255 0021324 133.1390 227.1608 14.81636028274951 AJISAI (EGS) 1 16908U 86061A 10073.52865171 -.00000083 00000-0 10000-3 0 1618 2 16908 50.0102 47.7852 0011662 184.6265 175.4464 12.44463677741260 COSMOS 1812 1 17295U 87003A 10073.51393722 .00000723 00000-0 52176-4 0 1466 2 17295 82.5219 206.2269 0011647 190.2385 169.8668 15.02571638259320 SL-14 R/B 1 17567U 87024B 10073.30117530 .00000100 00000-0 94497-5 0 257 2 17567 82.5307 158.0278 0021571 83.5944 276.7716 14.82202646243463 COSMOS 1833 1 17589U 87027A 10073.33560617 -.00000022 00000-0 13977-4 0 5460 2 17589 70.9111 357.2376 0005493 22.1191 338.0170 14.12730084185760 SL-16 R/B 1 17590U 87027B 10073.29410922 -.00000043 00000-0 22549-5 0 4930 2 17590 71.0055 332.9939 0004043 7.1705 352.9458 14.16482872188579 SL-14 R/B 1 17912U 87038B 10073.43025241 .00000111 00000-0 11200-4 0 169 2 17912 82.5020 15.3981 0019725 317.8422 42.1271 14.81505894234930 COSMOS 1844 1 17973U 87041A 10073.08821631 .00000027 00000-0 39798-4 0 5688 2 17973 70.8977 101.5047 0029855 147.0063 213.2932 14.13740766178282 SL-14 R/B 1 18153U 87055B 10073.09363579 .00000102 00000-0 98594-5 0 226 2 18153 82.4961 71.3451 0022429 165.1928 194.9961 14.81732722225456 COSMOS 1867 1 18187U 87060A 10073.09051471 -.00000078 00000-0 82724-5 0 8324 2 18187 65.0096 89.6825 0017241 279.8017 80.1117 14.30861900184520 SL-14 R/B 1 18749U 88001B 10073.07997033 .00000100 00000-0 96744-5 0 273 2 18749 82.5093 267.0478 0021090 42.2206 318.0628 14.81674110197570 COSMOS 1933 1 18958U 88020A 10073.10373452 .00000469 00000-0 38609-4 0 9253 2 18958 82.5309 129.1702 0011425 258.9696 101.0275 14.96821995194004 SL-3 R/B 1 19046U 88032B 10073.54928331 .00000908 00000-0 85431-4 0 4523 2 19046 97.8696 117.5990 0036439 263.4831 96.2250 14.96004727175435 SL-16 R/B 1 19120U 88039B 10073.42368290 .00000063 00000-0 53486-4 0 8714 2 19120 71.0138 166.3145 0024818 289.4949 70.3536 14.18594152130221 COSMOS 1953 1 19210U 88050A 10072.51074714 .00000161 00000-0 11777-4 0 382 2 19210 82.5150 66.9520 0014902 245.2885 114.6808 14.96711991179973 SL-8 R/B 1 19257U 88053B 10072.91880376 -.00000038 00000-0 -39671-5 0 8308 2 19257 74.0476 48.4386 0021707 236.5877 123.3219 14.36415727137824 COSMOS 1975 1 19573U 88093A 10072.93241866 .00000856 00000-0 74804-4 0 8065 2 19573 82.5257 12.2215 0015636 265.0893 94.8553 14.95490908162353 SL-14 R/B 1 19574U 88093B 10073.14852656 .00000097 00000-0 92868-5 0 87 2 19574 82.5289 101.5871 0021151 206.4308 153.5827 14.81773551156531 SL-16 R/B 1 19650U 88102B 10073.47157568 .00000089 00000-0 70144-4 0 1061 2 19650 70.9984 189.7653 0016051 258.1134 101.8159 14.15524696100724 INTERCOSMOS 24 1 20261U 89080A 10073.14994302 .00000204 00000-0 51818-4 0 1129 2 20261 82.5840 284.8936 1215914 80.0823 293.5041 12.53469718933403 SL-14 R/B 1 20262U 89080C 10073.78875630 .00000065 00000-0 13526-4 0 6148 2 20262 82.5951 312.6345 1242121 175.7477 185.5468 12.47775793930910 DELTA 1 R/B 1 20323U 89089B 10073.82092916 .00000154 00000-0 50286-4 0 7120 2 20323 97.0829 48.3796 0074401 131.3797 229.3828 14.46784363 71188 DELTA 2 R/B(1) 1 20453U 90008B 10073.33262485 .00001063 00000-0 84081-4 0 7291 2 20453 35.6286 41.6882 0375257 122.2475 241.5183 14.59849266 57524 COSMOS 2058 1 20465U 90010A 10073.10534676 .00000581 00000-0 55994-4 0 7358 2 20465 82.4883 263.5911 0017654 173.9969 186.1450 14.91068367 89339 SL-14 R/B 1 20466U 90010B 10073.79414319 .00000078 00000-0 72323-5 0 6205 2 20466 82.5042 330.6839 0022735 41.2161 319.0772 14.79924505 85184 SL-14 R/B 1 20511U 90018B 10073.60439560 .00000088 00000-0 88912-5 0 6278 2 20511 82.5188 260.7366 0018113 153.2820 206.9338 14.78642093 80067 HST 1 20580U 90037B 10073.56062710 .00000570 00000-0 30868-4 0 5359 2 20580 28.4688 137.5808 0003299 271.7379 88.2944 15.00919352890528 SL-16 R/B 1 20625U 90046B 10072.80813319 -.00000255 00000-0 -10823-3 0 5376 2 20625 71.0009 314.9056 0014842 184.0475 176.0507 14.14381312 22772 COSMOS 2084 1 20663U 90055A 10073.31151290 .00000354 00000-0 55323-4 0 7801 2 20663 62.7939 34.1566 0128224 48.6570 312.5477 14.85412379 65081 SL-6 R/B(2) 1 20666U 90055D 10073.11073094 .00000261 00000-0 44382-4 0 8482 2 20666 62.7874 325.4882 0136974 66.1977 295.3411 14.86486492 66249 SL-8 R/B 1 20775U 90078B 10073.15066439 .00005711 00000-0 33008-3 0 1656 2 20775 82.9392 6.7586 0727225 32.6288 331.7729 13.98679366973900 SL-8 R/B 1 21088U 91006B 10072.89124733 .00000021 00000-0 58929-5 0 6596 2 21088 82.9425 191.3763 0022484 179.0071 181.1135 13.76740858960617 OKEAN-3 1 21397U 91039A 10072.70147164 .00000227 00000-0 22469-4 0 9194 2 21397 82.5229 126.2322 0021679 68.6638 291.6900 14.86918077 14926 COSMOS 2151 1 21422U 91042A 10073.03662704 .00000674 00000-0 71346-4 0 5501 2 21422 82.4970 241.2710 0017139 116.1151 244.1870 14.87569045 13679 SL-14 R/B 1 21423U 91042B 10073.08234142 .00000200 00000-0 24338-4 0 4219 2 21423 82.4896 277.1939 0016342 291.9279 68.0206 14.78421314 10574 ERS-1 1 21574U 91050A 10072.64594164 .00000026 00000-0 23042-4 0 6948 2 21574 98.1543 81.3226 0033830 343.4953 16.5104 14.35698843976753 ARIANE 40 R/B 1 21610U 91050F 10073.42972999 .00000129 00000-0 56456-4 0 2688 2 21610 98.6751 46.4261 0002327 284.3986 75.6946 14.39144454978476 UARS 1 21701U 91063B 10073.85677515 .00011693 00000-0 13934-3 0 9145 2 21701 56.9700 254.7193 0066480 347.9951 11.9521 15.58990334 21372 INTERCOSMOS 25 1 21819U 91086A 10073.47900335 -.00000228 00000-0 -46080-4 0 130 2 21819 82.5608 209.9206 1547973 303.5815 42.6661 11.99084752793764 SL-14 R/B 1 21820U 91086B 10073.47444568 .00000092 00000-0 12056-4 0 9191 2 21820 82.5493 239.4372 1588814 43.0758 328.4161 11.90894340790840 SL-8 R/B 1 21876U 92008B 10072.76766702 .00000018 00000-0 33005-5 0 6761 2 21876 82.9231 288.1309 0033379 235.7967 124.0025 13.75381472906758 SL-8 R/B 1 21938U 92020B 10072.78164417 .00000040 00000-0 26267-4 0 7038 2 21938 82.9315 169.2761 0030191 33.6714 326.6348 13.75043410898750 SL-16 R/B 1 22220U 92076B 10072.93736296 -.00000218 00000-0 -85893-4 0 1359 2 22220 70.9957 240.8321 0012706 345.0786 14.9994 14.16150631895259 SL-16 R/B 1 22285U 92093B 10073.40330636 -.00000150 00000-0 -53137-4 0 1429 2 22285 71.0219 13.9257 0006060 222.1444 137.9208 14.14745210887461 COSMOS 2228 1 22286U 92094A 10073.20890154 .00000384 00000-0 44049-4 0 9994 2 22286 82.5237 345.1289 0020299 249.4633 110.4409 14.83119929928841 SL-16 R/B 1 22566U 93016B 10073.80853438 .00000199 00000-0 12830-3 0 8726 2 22566 71.0049 230.9884 0011350 213.2314 146.8079 14.14665927876274 COSMOS 2242 1 22626U 93024A 10073.77751092 .00000246 00000-0 27096-4 0 7577 2 22626 82.5234 12.2322 0018738 249.1679 110.7533 14.83271012912563 SL-16 R/B 1 22803U 93059B 10073.45430517 .00000248 00000-0 14801-3 0 937 2 22803 70.9888 76.0657 0015597 105.6768 254.6070 14.16548474852742 ARIANE 40 R/B 1 22830U 93061H 10073.42779856 .00000028 00000-0 27420-4 0 9734 2 22830 98.6117 24.7104 0011615 125.9596 234.2661 14.30499123859000 COSMOS 2278 1 23087U 94023A 10073.19233910 -.00000103 00000-0 -29746-4 0 1335 2 23087 71.0551 139.7375 0010965 297.2730 62.7272 14.13310634819748 SL-16 R/B 1 23088U 94023B 10072.76486382 -.00000029 00000-0 97269-5 0 7643 2 23088 70.9978 88.1344 0003795 201.3192 158.7770 14.14469310820461 SL-16 R/B 1 23343U 94074B 10073.39936896 -.00000057 00000-0 -85882-6 0 7307 2 23343 98.0663 42.4832 0006058 281.8113 78.2421 14.75013339825695 SL-16 R/B 1 23405U 94077B 10072.95689871 -.00000048 00000-0 00000-0 0 2316 2 23405 70.9872 30.5882 0002124 335.9645 24.1385 14.14936072790320 ERS-2 1 23560U 95021A 10073.69420293 -.00000031 00000-0 44294-5 0 9970 2 23560 98.5287 149.9017 0001433 104.8465 255.2872 14.32261013778935 ARIANE 40+ R/B 1 23561U 95021B 10073.06577075 .00000042 00000-0 29174-4 0 5553 2 23561 98.4746 24.2404 0006381 203.6443 156.4446 14.36414807780332 SL-16 R/B 1 23705U 95058B 10073.39857287 -.00000154 00000-0 -55216-4 0 619 2 23705 71.0216 191.4845 0012032 10.4068 349.7289 14.14876860742083 SL-16 R/B 1 24298U 96051B 10072.64797229 .00000503 00000-0 29809-3 0 2860 2 24298 70.8812 247.3208 0017809 184.4609 175.6350 14.12426209697286 ORBVIEW 2 (SEASTAR) 1 24883U 97037A 10073.71158349 .00000148 00000-0 40935-4 0 797 2 24883 98.3706 204.8237 0002510 85.0822 275.0668 14.60029251671917 SL-16 R/B 1 25400U 98043G 10073.68480645 -.00000017 00000-0 10326-4 0 4559 2 25400 98.3357 113.5836 0009964 155.4364 204.7292 14.25109235607394 SL-16 R/B 1 25407U 98045B 10072.75657930 .00000131 00000-0 91214-4 0 2771 2 25407 71.0086 214.2006 0009430 283.9587 76.0476 14.15514406600811 ISS (ZARYA) 1 25544U 98067A 10073.90907446 .00021496 00000-0 15164-3 0 7732 2 25544 51.6476 354.6212 0007760 51.7877 35.3189 15.73976119648623 SL-8 R/B 1 25723U 99022C 10073.52781772 .00000502 00000-0 40974-4 0 5082 2 25723 48.4436 129.1894 0021955 280.9669 78.8790 15.16359593600323 CZ-4B R/B 1 25732U 99025C 10073.44795198 .00000012 00000-0 26837-4 0 3438 2 25732 98.6817 46.9797 0038420 104.7068 255.8368 14.17201679560988 OKEAN-O 1 25860U 99039A 10072.94787470 .00000094 00000-0 21772-4 0 9375 2 25860 97.8220 48.9369 0001750 60.4653 299.6717 14.73621059572875 SL-16 R/B 1 25861U 99039B 10073.53503305 .00000076 00000-0 17835-4 0 3048 2 25861 97.7327 55.6697 0016747 12.5710 347.5920 14.76635792574239 SL-14 R/B 1 26874U 01032B 10072.88901390 .00001643 00000-0 46546-4 0 3954 2 26874 82.4818 145.2107 0021283 256.2452 103.6445 15.35267931481640 ENVISAT 1 27386U 02009A 10073.70321293 -.00000031 00000-0 45750-5 0 8670 2 27386 98.5472 142.1754 0000984 106.0708 51.1550 14.32248114420216 IDEFIX & ARIANE 42P R/B 1 27422U 02021B 10073.67631849 .00000026 00000-0 27395-4 0 2864 2 27422 98.4924 151.3227 0012861 145.4136 214.7909 14.28535905408026 AQUA 1 27424U 02022A 10073.68932323 .00000161 00000-0 45652-4 0 5835 2 27424 98.1996 16.5980 0001659 63.5767 296.5583 14.57123841418150 CZ-4B R/B 1 27432U 02024C 10073.50329920 -.00000022 00000-0 10533-4 0 8201 2 27432 98.6087 52.2068 0050948 15.6990 344.5750 14.13618317404109 JB-3 2 (ZY 2B) 1 27550U 02049A 10073.87840475 .00001824 00000-0 75431-4 0 4363 2 27550 97.0835 99.3078 0007380 304.7567 177.5340 15.25137740410736 MIDORI II (ADEOS-II) 1 27597U 02056A 10073.17313974 .00000017 00000-0 24695-4 0 932 2 27597 98.4368 133.4693 0000650 139.1718 220.9510 14.26197282377277 H-2A R/B 1 27601U 02056E 10073.12367716 .00000042 00000-0 31879-4 0 8664 2 27601 98.5570 163.8980 0072520 207.1614 152.5767 14.30740388378463 H-2A R/B 1 27700U 03009C 10073.60590951 .00006159 00000-0 15492-3 0 765 2 27700 97.0027 89.3503 0039426 213.4055 146.4718 15.39477786389272 CZ-4B R/B 1 28059U 03049C 10072.96855408 .00000007 00000-0 13776-4 0 8203 2 28059 98.5554 204.4500 0051949 31.7726 328.6588 14.51457509338804 CZ-2C R/B 1 28222U 04012C 10073.57235582 .00000182 00000-0 20246-4 0 8887 2 28222 97.4011 112.1260 0053739 222.3305 137.3812 14.97159331322439 SL-16 R/B 1 28353U 04021B 10072.76714432 .00000266 00000-0 16529-3 0 5886 2 28353 70.9977 239.7532 0006662 264.0429 95.9928 14.13930360297213 CZ-4B R/B 1 28471U 04044B 10073.91221580 .00006271 00000-0 13953-3 0 5933 2 28471 96.9662 90.3312 0102750 95.3696 265.9290 15.38467727299501 CZ-2C R/B 1 28480U 04046B 10070.64707900 .00000100 00000-0 53786-4 0 6167 2 28480 98.1698 326.1540 0143878 149.7386 211.2388 14.24843567276133 ARIANE 5 R/B 1 28499U 04049H 10073.58609337 .00000084 00000-0 18849-4 0 6624 2 28499 98.2930 63.3649 0098146 87.7640 273.4798 14.77154283282190 CZ-2D R/B 1 28738U 05024B 10073.13272515 .00001131 00000-0 93561-4 0 5929 2 28738 97.7761 93.2910 0012244 358.8962 1.2232 15.00914010256740 SUZAKU (ASTRO-EII) 1 28773U 05025A 10073.91331980 .00000707 00000-0 48480-4 0 2067 2 28773 31.4053 354.1030 0006325 352.0441 8.0107 15.00978037256915 ALOS (DAICHI) 1 28931U 06002A 10073.72901369 -.00000626 00000-0 -12205-3 0 6377 2 28931 98.1603 150.0213 0001210 97.1400 262.9927 14.59567114220362 H-2A R/B 1 28932U 06002B 10073.11260640 .00000341 00000-0 45858-4 0 3382 2 28932 98.2342 206.0413 0105433 285.5938 73.3640 14.82731747223695 AKARI (ASTRO-F) 1 28939U 06005A 10072.71434456 .00000129 00000-0 38371-4 0 2289 2 28939 98.2534 78.6382 0009301 68.1589 292.0594 14.57604590215356 M-V-8 R/B 1 28942U 06005D 10073.85812459 .00033094 29287-5 20787-3 0 1709 2 28942 98.1519 272.0274 0142502 294.3407 64.3045 15.64201283228126 RESURS-DK 1 1 29228U 06021A 10073.86930980 .00003011 00000-0 67183-4 0 2151 2 29228 69.9339 9.8074 0155871 97.6542 264.2379 15.33109412209803 COSMOS 2421 1 29247U 06026A 10073.12723219 .00058160 00000-0 42413-3 0 9948 2 29247 65.0330 70.6638 0013163 283.5462 76.4211 15.72828976211344 GENESIS 1 1 29252U 06029A 10073.71875624 .00000591 00000-0 55869-4 0 36 2 29252 64.5098 209.6991 0003671 25.5069 334.6243 15.03548421201588 H-2A R/B 1 29394U 06037B 10072.88283839 .00010357 00000-0 23369-3 0 759 2 29394 97.3499 203.7771 0035500 102.0674 258.4556 15.42734744196721 CZ-4B R/B 1 29507U 06046C 10073.45371345 .00000518 00000-0 54932-4 0 1074 2 29507 97.6623 76.1223 0045338 130.1742 230.3430 14.92508715184561 SL-8 R/B 1 29659U 06060B 10073.88337069 .00002688 00000-0 95255-4 0 9509 2 29659 98.0918 201.2128 0038113 18.3662 341.8937 15.29475044180393 ATLAS 5 CENTAUR R/B 1 30778U 07006G 10073.59718226 .00001556 00000-0 80970-4 0 8027 2 30778 35.7030 154.6968 0029998 94.4960 265.9193 15.16154703167151 CZ-2C R/B 1 31114U 07010B 10072.61321012 .00000108 00000-0 69991-4 0 7641 2 31114 98.2419 96.6608 0060525 7.7861 352.4250 14.18644067151354 GENESIS 2 1 31789U 07028A 10073.53406666 .00000497 00000-0 49263-4 0 7516 2 31789 64.5041 241.7519 0042429 223.0830 136.6959 15.03220182148767 COSMOS 2428 1 31792U 07029A 10073.75536590 .00000137 00000-0 10000-3 0 111 2 31792 70.9751 205.1892 0010726 310.9467 197.6604 14.12277166139694 SL-16 R/B 1 31793U 07029B 10072.79728239 .00000254 00000-0 15851-3 0 7945 2 31793 70.9762 198.7708 0001723 265.1906 94.9007 14.14060811139725